SCP
0 0 0 0 0 0 0 0 0 0 0 0 0 0 0 0 0 0 0 0 0 0 0 0 0 0 0 0 0 0 0 0 0 0 0 0 0 0 0 0 0 0 0 0
0 0 0 0 0 0 0 0 0 0 0 0 0 0 0 0 0 0 0 0 0 0 0 0 0 0 0 0 0 0 0 0 0 0 0 0 0 0 0 0 0 0 0 0
0 0 0 0 0 0 0 0 0 0 0 0 0 0 0 0 0 0 0 0 0 0 0 0 0 0 0 0 0 0 0 0 0 0 0 0 0 0 0 0 0 0 0 0
0 0 0 0 0 0 0 0 0 0 0 0 0 0 0 0 0 0 0 0 0 0 0 0 0 0 0 0 0 0 0 0 0 0 0 0 0 0 0 0 0 0 0 0
0 0 0 0 0 0 0 0 0 0 0 0 0 0 0 0 0 0 0 0 0 0 0 0 0 0 0 0 0 0 0 0 0 0 0 0 0 0 0 0 0 0 0 0
0 0 0 0 0 0 0 0 0 0 0 0 0 0 0 0 0 0 0 0 0 0 0 0 0 0 0 0 0 0 0 0 0 0 0 0 0 0 0 0 0 0 0 0
0 0 0 0 0 0 0 0 0 0 0 0 0 0 0 0 0 0 0 0 0 0 0 0 0 0 0 0 0 0 0 0 0 0 0 0 0 0 0 0 0 0 0 0
0 0 0 0 0 0 0 0 0 0 0 0 0 0 0 0 0 0 0 0 0 0 0 0 0 0 0 0 0 0 0 0 0 0 0 0 0 0 0 0 0 0 0 0
-0 0 0 0 0 0 0 0 0 0 0 0 0 0 0 0 0 0 0 0 0 0 0 0 0 0 0 0 0 0 0 0 0 0 0 0 0 0 0 0 0 0 0 0
-0 0 0 0 0 0 0 0 0 0 0 0 0 0 0 0 0 0 0 0 0 0 0 0 0 0 0 0 0 0 0 0 0 0 0 0 0 0 0 0 0 0 0 0
-0 -0 -0 0 0 0 0 0 0 0 0 0 0 0 0 0 0 0 0 0 0 0 0 0 0 0 0 0 0 0 0 0 0 0 0 0 0 0 0 0 0 0 0 0
-0 0 0 0 0 0 0 0 0 0 0 0 0 0 0 0 0 0 0 0 0 0 0 0 0 0 0 0 0 0 0 0 0 0 0 0 0 0 0 0 0 0 0 0
0 0 0 0 0 0 0 0 0 0 0 0 0 0 0 0 0 0 0 0 0 0 0 0 0 0 0 0 0 0 0 0 0 0 0 0 0 0 0 0 0 0 0 0
-0 -0 0 0 0 0 0 0 0 0 0 0 0 0 0 0 0 0 0 0 0 0 0 0 0 0 0 0 0 0 0 0 0 0 0 0 0 0 0 0 0 0 0 0
0 -0 -0 0 0 0 0 0 0 0 0 0 0 0 0 0 0 0 0 0 0 0 0 0 0 0 0 0 0 0 0 0 0 0 0 0 0 0 0 0 0 0 0 0
0 0 0 0 0 0 0 0 0 0 0 0 0 0 0 0 0 0 0 0 0 0 0 0 0 0 0 0 0 0 0 0 0 0 0 0 0 0 0 0 0 0 0 0
0 0 0 0 0 0 0 0 0 0 0 0 0 0 0 0 0 0 0 0 0 0 0 0 0 0 0 0 0 0 0 0 0 0 0 0 0 0 0 0 0 0 0 0
0 0 0 0 0 0 0 0 0 0 0 0 0 0 0 0 0 0 0 0 0 0 0 0 0 0 0 0 0 0 0 0 0 0 0 0 0 0 0 0 0 0 0 0
0 0 0 0 0 -0 0 0 0 0 0 0 0 0 0 0 0 0 0 0 0 0 0 0 0 0 0 0 0 0 0 0 0 0 0 0 0 0 0 0 0 0 0 0
0 0 0 0 0 -0 -0 0 0 0 0 0 0 0 0 0 0 0 0 0 0 0 0 0 0 0 0 0 0 0 0 0 0 0 0 0 0 0 0 0 0 0 0 0
0 0 0 0 0 0 0 0 0 0 0 0 0 0 0 0 0 0 0 0 0 0 0 0 0 0 0 0 0 0 0 0 0 0 0 0 0 0 0 0 0 0 0 0
0 0 0 0 0 0 0 0 0 0 0 0 0 0 0 0 0 0 0 0 0 0 0 0 0 0 0 0 0 0 0 0 0 0 0 0 0 0 0 0 0 0 0 0
0 0 0 0 0 0 0 0 0 0 0 0 0 0 0 0 0 0 0 0 0 0 0 0 0 0 0 0 0 0 0 0 0 0 0 0 0 0 0 0 0 0 0 0
0 0 0 0 0 0 0 0 0 0 0 0 0 0 0 0 0 0 0 0 0 0 0 0 0 0 0 0 0 0 0 0 0 0 0 0 0 0 0 0 0 0 0 0
0 0 0 0 0 0 0 -0 0 0 0 0 0 0 0 0 0 0 0 0 0 0 0 0 0 0 0 0 0 0 0 0 0 0 0 0 0 0 0 0 0 0 0 0
0 0 0 0 0 -0 -0 -0 0 0 0 0 0 0 0 0 0 0 0 0 0 0 0 0 0 0 0 0 0 0 0 0 0 0 0 0 0 0 0 0 0 0 0 0
Wind_Speed_500mb
14 7 16 7 9 8 7 12 10 5 10 9 18 14 22 25 21 26 32 28 43 42 51 49 52 54 59 59 50 46 43 43 40 37 29 21 22 24 24 21 18 16 14 16
3 14 15 17 15 19 12 12 9 2 4 2 9 18 12 16 17 35 44 36 35 34 44 49 57 66 64 59 52 49 45 40 33 26 18 15 19 20 18 18 19 19 20 21
11 10 14 13 12 23 9 12 8 7 5 6 7 12 11 8 23 19 21 24 29 27 43 56 67 73 68 60 54 50 40 28 26 26 21 18 22 21 23 27 26 25 27 30
9 6 11 4 8 13 11 10 10 12 9 8 5 8 9 7 10 6 15 22 21 23 31 56 68 76 70 60 53 40 28 23 23 23 20 17 17 22 25 26 27 32 36 38
9 5 5 5 9 10 12 9 13 9 8 4 3 3 11 2 10 12 10 13 14 17 21 43 65 77 69 56 44 33 23 20 20 20 22 20 19 19 24 28 30 35 38 42
3 3 3 3 5 7 14 14 16 9 6 4 12 11 10 10 12 7 7 8 9 12 18 29 51 67 62 52 41 29 24 23 26 31 32 32 31 30 31 33 36 38 41 41
7 6 2 2 9 8 9 12 5 2 5 9 5 7 15 9 7 10 15 8 6 13 22 35 52 61 55 47 38 31 30 32 35 38 40 40 38 37 36 37 40 40 38 37
9 6 6 5 7 9 8 13 10 11 9 8 4 12 10 6 7 21 22 14 9 9 18 43 50 52 48 42 37 35 35 34 33 31 30 29 31 34 38 39 38 37 37 36
4 12 18 7 6 12 8 8 6 8 6 5 7 9 8 7 9 14 22 22 22 23 29 46 48 43 38 35 32 29 25 24 22 21 19 19 21 25 29 33 35 35 36 37
9 0 9 10 3 3 7 11 8 3 7 8 6 6 9 10 12 10 12 25 30 33 37 38 37 35 32 28 24 19 15 12 9 9 12 17 21 25 28 31 34 35 36 37
5 9 5 4 5 10 5 5 4 8 6 8 0 10 10 19 19 21 22 33 36 36 36 35 33 30 26 23 20 17 13 9 10 14 21 27 30 32 32 36 36 37 37 38
2 4 2 7 4 0 4 3 7 8 7 5 7 10 5 13 19 36 37 39 38 35 33 30 28 27 25 22 18 12 8 13 17 22 26 31 32 33 34 36 34 32 34 40
8 5 6 5 7 5 5 8 6 10 7 7 9 10 8 8 19 39 45 44 44 39 37 34 31 29 26 22 17 12 13 16 21 25 27 30 30 33 34 34 34 37 43 43
2 1 6 8 8 5 6 6 7 9 7 8 11 8 6 10 18 24 40 49 49 47 44 38 34 31 27 22 17 14 15 21 26 30 29 28 29 32 34 35 38 39 41 49
4 5 3 8 8 3 5 9 11 13 8 10 8 13 12 19 25 43 54 49 51 50 46 38 36 36 30 22 15 15 21 25 25 23 22 26 31 35 36 36 35 38 48 54
3 3 6 6 5 4 8 11 9 9 6 9 8 10 7 10 20 27 48 53 57 54 45 38 36 32 23 14 13 17 20 20 20 20 24 31 33 33 33 34 39 49 52 53
4 4 6 8 8 11 12 11 12 8 7 11 11 15 8 7 15 27 40 54 58 51 41 40 32 21 11 10 15 18 21 21 22 25 31 31 30 31 32 40 48 51 53 55
7 6 4 5 8 3 8 2 1 8 7 6 3 8 9 10 11 6 18 42 45 39 39 33 21 10 9 13 17 19 18 20 24 28 30 31 35 36 39 45 50 53 55 56
2 8 4 4 4 13 3 0 3 4 10 14 13 9 13 24 13 15 5 15 31 37 32 21 11 8 10 12 14 17 18 20 25 30 34 36 37 38 43 48 54 54 57 56
7 8 7 4 4 8 8 2 2 3 10 8 17 13 20 15 5 6 17 24 33 28 18 10 4 3 7 10 13 17 20 24 27 31 34 33 34 40 45 53 53 54 53 57
2 5 8 5 5 15 10 3 2 8 12 4 16 27 34 8 10 14 33 30 23 18 12 7 1 6 9 13 20 23 26 29 32 38 36 33 35 41 48 52 52 51 55 61
12 10 6 4 2 12 12 8 9 8 2 2 8 23 38 19 14 37 35 30 22 15 10 3 6 10 14 19 24 26 30 30 36 34 33 34 38 43 48 50 49 52 56 64
3 11 8 16 11 9 23 8 11 2 7 9 10 17 27 25 37 38 35 26 18 12 5 3 9 15 20 20 24 29 30 31 29 33 36 38 39 44 46 47 50 55 58 52
6 8 5 5 6 17 33 27 30 14 12 13 11 12 23 29 39 36 29 24 17 9 2 6 13 18 20 22 28 29 28 28 31 36 36 38 43 44 43 46 50 52 51 47
6 10 7 10 19 22 31 28 27 24 17 19 18 17 27 30 36 29 28 21 13 7 4 11 17 20 23 24 24 25 26 30 30 33 37 42 42 43 46 50 46 51 44 40
15 13 9 12 19 7 8 7 25 33 29 24 24 32 30 27 31 30 25 18 11 5 9 15 20 20 22 22 26 25 26 27 33 39 43 41 42 44 48 49 54 40 40 40
Wind_Direction_500mb
192 169 207 171 197 249 175 137 149 228 181 148 199 211 221 218 232 230 212 221 222 211 219 220 218 218 204 200 205 199 199 202 208 211 215 221 226 216 214 219 231 237 247 264
6 206 219 192 216 201 204 178 179 44 112 125 166 242 234 210 238 238 238 244 222 217 207 210 204 198 197 199 200 199 202 206 211 227 234 236 223 218 227 239 243 243 252 268
176 224 168 183 187 201 192 156 168 161 77 49 100 306 247 224 226 225 233 234 210 213 205 200 200 198 197 199 202 202 199 207 219 219 228 226 218 231 238 243 254 264 268 275
191 293 149 135 219 182 210 166 136 132 128 195 165 257 258 265 235 195 153 167 181 198 204 207 205 199 199 202 200 197 203 217 224 230 237 250 261 262 258 261 270 269 268 272
240 54 164 135 214 135 232 146 164 145 98 122 226 126 259 170 242 215 184 173 188 203 219 217 210 202 199 199 195 197 209 219 229 235 242 257 270 278 274 269 274 277 272 274
271 346 75 116 34 161 143 75 51 54 77 260 214 166 271 200 214 173 184 187 210 223 227 219 210 194 191 192 195 203 213 222 230 234 241 248 257 263 267 266 272 277 279 278
17 322 40 123 78 36 103 93 56 67 207 228 150 142 249 300 247 182 162 162 219 216 211 199 192 187 189 193 198 205 214 224 231 234 239 246 253 258 261 266 272 273 272 274
27 325 7 328 150 183 180 158 156 180 174 204 86 221 251 304 45 120 130 123 122 155 178 179 179 181 187 192 199 208 215 221 227 233 241 249 256 263 269 273 273 271 272 273
91 308 302 221 184 152 182 187 227 65 42 100 211 290 309 72 77 108 124 121 109 122 145 163 169 176 182 189 196 200 207 219 230 241 251 262 273 279 282 283 283 283 285 286
203 165 253 284 191 278 166 177 78 101 217 226 278 278 237 209 192 165 145 133 132 134 143 153 162 174 181 185 189 195 205 219 234 260 279 291 296 297 296 296 299 298 294 290
174 194 198 208 229 175 129 138 130 133 132 157 348 265 214 205 188 180 177 164 157 152 151 154 161 169 179 188 196 202 208 226 265 289 299 302 303 301 297 299 302 298 293 292
124 141 196 187 265 263 133 202 192 121 206 94 136 278 350 253 178 172 176 176 173 170 169 175 181 186 187 188 189 202 247 283 290 296 301 299 294 291 293 299 302 295 295 298
353 1 358 27 20 16 159 238 97 81 74 185 132 264 14 114 150 188 179 183 181 181 183 184 186 188 192 199 210 236 268 280 287 295 298 294 287 291 298 303 300 300 302 303
201 219 171 194 222 179 257 217 153 129 121 176 217 253 227 188 185 190 192 190 190 192 194 193 194 198 199 204 215 243 275 294 303 303 298 291 292 297 301 301 303 304 304 306
76 221 211 247 238 263 259 242 187 198 174 165 239 205 243 204 199 197 199 197 196 200 199 200 197 193 196 204 231 271 291 300 306 306 297 296 298 299 300 303 304 305 308 311
45 278 348 305 334 316 276 265 222 223 179 259 170 251 228 155 181 184 203 199 203 203 201 198 193 194 198 219 265 292 303 311 315 310 309 310 306 301 303 304 307 310 310 311
42 52 42 278 345 331 298 235 203 203 188 161 190 227 165 179 199 208 207 206 206 203 199 194 192 186 208 266 288 299 308 313 314 315 318 320 318 314 312 311 311 313 312 310
133 100 92 254 1 284 250 255 253 228 254 180 156 188 167 132 124 196 225 217 213 205 189 179 176 198 259 285 296 302 304 308 309 313 317 319 321 320 316 313 315 312 310 311
153 122 89 110 213 288 339 155 191 175 279 197 187 146 107 127 119 54 114 196 207 184 171 171 190 248 284 306 314 315 316 309 310 314 311 311 312 312 312 313 315 312 311 312
75 69 119 114 115 236 249 261 6 66 298 198 163 155 155 145 104 259 141 154 154 156 160 175 213 291 328 330 340 336 329 325 323 322 317 312 310 307 309 312 313 314 313 313
96 23 167 148 228 286 244 236 90 80 247 34 185 177 165 159 180 162 162 154 153 156 159 157 129 355 360 342 333 331 327 328 322 322 320 314 308 308 310 312 315 314 313 314
175 148 186 89 111 292 175 112 178 216 48 125 152 186 185 188 150 156 160 159 158 159 154 107 14 353 339 324 314 317 319 314 317 321 323 320 313 310 312 315 315 315 316 317
245 187 181 180 215 246 201 201 202 192 176 179 164 167 189 174 160 164 163 161 159 157 137 8 332 326 322 317 314 316 316 314 319 324 324 320 314 315 317 317 317 318 322 321
243 171 196 66 263 238 246 244 242 230 221 193 184 182 180 174 164 165 165 166 169 163 192 315 320 319 320 317 316 316 318 319 320 321 320 318 318 319 319 319 320 320 324 323
223 143 184 263 277 267 265 248 243 217 200 189 179 186 176 170 168 172 168 171 167 183 254 307 318 321 320 320 328 328 324 322 325 329 325 322 321 321 322 324 326 325 326 324
195 196 176 232 235 217 232 260 221 206 199 199 189 169 172 178 170 167 167 167 182 232 298 314 319 317 322 323 329 327 325 328 330 329 326 324 324 323 325 328 327 328 326 321
Wind_Speed_850mb
14 7 16 7 9 8 7 12 10 5 10 9 18 14 22 25 21 26 32 28 43 42 51 49 52 54 59 59 50 46 43 43 40 37 29 21 22 24 24 21 18 16 14 16
3 14 15 17 15 19 12 12 9 2 4 2 9 18 12 16 17 35 44 36 35 34 44 49 57 66 64 59 52 49 45 40 33 26 18 15 19 20 18 18 19 19 20 21
11 10 14 13 12 23 9 12 8 7 5 6 7 12 11 8 23 19 21 24 29 27 43 56 67 73 68 60 54 50 40 28 26 26 21 18 22 21 23 27 26 25 27 30
9 6 11 4 8 13 11 10 10 12 9 8 5 8 9 7 10 6 15 22 21 23 31 56 68 76 70 60 53 40 28 23 23 23 20 17 17 22 25 26 27 32 36 38
9 5 5 5 9 10 12 9 13 9 8 4 3 3 11 2 10 12 10 13 14 17 21 43 65 77 69 56 44 33 23 20 20 20 22 20 19 19 24 28 30 35 38 42
3 3 3 3 5 7 14 14 16 9 6 4 12 11 10 10 12 7 7 8 9 12 18 29 51 67 62 52 41 29 24 23 26 31 32 32 31 30 31 33 36 38 41 41
7 6 2 2 9 8 9 12 5 2 5 9 5 7 15 9 7 10 15 8 6 13 22 35 52 61 55 47 38 31 30 32 35 38 40 40 38 37 36 37 40 40 38 37
9 6 6 5 7 9 8 13 10 11 9 8 4 12 10 6 7 21 22 14 9 9 18 43 50 52 48 42 37 35 35 34 33 31 30 29 31 34 38 39 38 37 37 36
4 12 18 7 6 12 8 8 6 8 6 5 7 9 8 7 9 14 22 22 22 23 29 46 48 43 38 35 32 29 25 24 22 21 19 19 21 25 29 33 35 35 36 37
9 0 9 10 3 3 7 11 8 3 7 8 6 6 9 10 12 10 12 25 30 33 37 38 37 35 32 28 24 19 15 12 9 9 12 17 21 25 28 31 34 35 36 37
5 9 5 4 5 10 5 5 4 8 6 8 0 10 10 19 19 21 22 33 36 36 36 35 33 30 26 23 20 17 13 9 10 14 21 27 30 32 32 36 36 37 37 38
2 4 2 7 4 0 4 3 7 8 7 5 7 10 5 13 19 36 37 39 38 35 33 30 28 27 25 22 18 12 8 13 17 22 26 31 32 33 34 36 34 32 34 40
8 5 6 5 7 5 5 8 6 10 7 7 9 10 8 8 19 39 45 44 44 39 37 34 31 29 26 22 17 12 13 16 21 25 27 30 30 33 34 34 34 37 43 43
2 1 6 8 8 5 6 6 7 9 7 8 11 8 6 10 18 24 40 49 49 47 44 38 34 31 27 22 17 14 15 21 26 30 29 28 29 32 34 35 38 39 41 49
4 5 3 8 8 3 5 9 11 13 8 10 8 13 12 19 25 43 54 49 51 50 46 38 36 36 30 22 15 15 21 25 25 23 22 26 31 35 36 36 35 38 48 54
3 3 6 6 5 4 8 11 9 9 6 9 8 10 7 10 20 27 48 53 57 54 45 38 36 32 23 14 13 17 20 20 20 20 24 31 33 33 33 34 39 49 52 53
4 4 6 8 8 11 12 11 12 8 7 11 11 15 8 7 15 27 40 54 58 51 41 40 32 21 11 10 15 18 21 21 22 25 31 31 30 31 32 40 48 51 53 55
7 6 4 5 8 3 8 2 1 8 7 6 3 8 9 10 11 6 18 42 45 39 39 33 21 10 9 13 17 19 18 20 24 28 30 31 35 36 39 45 50 53 55 56
2 8 4 4 4 13 3 0 3 4 10 14 13 9 13 24 13 15 5 15 31 37 32 21 11 8 10 12 14 17 18 20 25 30 34 36 37 38 43 48 54 54 57 56
7 8 7 4 4 8 8 2 2 3 10 8 17 13 20 15 5 6 17 24 33 28 18 10 4 3 7 10 13 17 20 24 27 31 34 33 34 40 45 53 53 54 53 57
2 5 8 5 5 15 10 3 2 8 12 4 16 27 34 8 10 14 33 30 23 18 12 7 1 6 9 13 20 23 26 29 32 38 36 33 35 41 48 52 52 51 55 61
12 10 6 4 2 12 12 8 9 8 2 2 8 23 38 19 14 37 35 30 22 15 10 3 6 10 14 19 24 26 30 30 36 34 33 34 38 43 48 50 49 52 56 64
3 11 8 16 11 9 23 8 11 2 7 9 10 17 27 25 37 38 35 26 18 12 5 3 9 15 20 20 24 29 30 31 29 33 36 38 39 44 46 47 50 55 58 52
6 8 5 5 6 17 33 27 30 14 12 13 11 12 23 29 39 36 29 24 17 9 2 6 13 18 20 22 28 29 28 28 31 36 36 38 43 44 43 46 50 52 51 47
6 10 7 10 19 22 31 28 27 24 17 19 18 17 27 30 36 29 28 21 13 7 4 11 17 20 23 24 24 25 26 30 30 33 37 42 42 43 46 50 46 51 44 40
15 13 9 12 19 7 8 7 25 33 29 24 24 32 30 27 31 30 25 18 11 5 9 15 20 20 22 22 26 25 26 27 33 39 43 41 42 44 48 49 54 40 40 40
Wind_Direction_850mb
192 169 207 171 197 249 175 137 149 228 181 148 199 211 221 218 232 230 212 221 222 211 219 220 218 218 204 200 205 199 199 202 208 211 215 221 226 216 214 219 231 237 247 264
6 206 219 192 216 201 204 178 179 44 112 125 166 242 234 210 238 238 238 244 222 217 207 210 204 198 197 199 200 199 202 206 211 227 234 236 223 218 227 239 243 243 252 268
176 224 168 183 187 201 192 156 168 161 77 49 100 306 247 224 226 225 233 234 210 213 205 200 200 198 197 199 202 202 199 207 219 219 228 226 218 231 238 243 254 264 268 275
191 293 149 135 219 182 210 166 136 132 128 195 165 257 258 265 235 195 153 167 181 198 204 207 205 199 199 202 200 197 203 217 224 230 237 250 261 262 258 261 270 269 268 272
240 54 164 135 214 135 232 146 164 145 98 122 226 126 259 170 242 215 184 173 188 203 219 217 210 202 199 199 195 197 209 219 229 235 242 257 270 278 274 269 274 277 272 274
271 346 75 116 34 161 143 75 51 54 77 260 214 166 271 200 214 173 184 187 210 223 227 219 210 194 191 192 195 203 213 222 230 234 241 248 257 263 267 266 272 277 279 278
17 322 40 123 78 36 103 93 56 67 207 228 150 142 249 300 247 182 162 162 219 216 211 199 192 187 189 193 198 205 214 224 231 234 239 246 253 258 261 266 272 273 272 274
27 325 7 328 150 183 180 158 156 180 174 204 86 221 251 304 45 120 130 123 122 155 178 179 179 181 187 192 199 208 215 221 227 233 241 249 256 263 269 273 273 271 272 273
91 308 302 221 184 152 182 187 227 65 42 100 211 290 309 72 77 108 124 121 109 122 145 163 169 176 182 189 196 200 207 219 230 241 251 262 273 279 282 283 283 283 285 286
203 165 253 284 191 278 166 177 78 101 217 226 278 278 237 209 192 165 145 133 132 134 143 153 162 174 181 185 189 195 205 219 234 260 279 291 296 297 296 296 299 298 294 290
174 194 198 208 229 175 129 138 130 133 132 157 348 265 214 205 188 180 177 164 157 152 151 154 161 169 179 188 196 202 208 226 265 289 299 302 303 301 297 299 302 298 293 292
124 141 196 187 265 263 133 202 192 121 206 94 136 278 350 253 178 172 176 176 173 170 169 175 181 186 187 188 189 202 247 283 290 296 301 299 294 291 293 299 302 295 295 298
353 1 358 27 20 16 159 238 97 81 74 185 132 264 14 114 150 188 179 183 181 181 183 184 186 188 192 199 210 236 268 280 287 295 298 294 287 291 298 303 300 300 302 303
201 219 171 194 222 179 257 217 153 129 121 176 217 253 227 188 185 190 192 190 190 192 194 193 194 198 199 204 215 243 275 294 303 303 298 291 292 297 301 301 303 304 304 306
76 221 211 247 238 263 259 242 187 198 174 165 239 205 243 204 199 197 199 197 196 200 199 200 197 193 196 204 231 271 291 300 306 306 297 296 298 299 300 303 304 305 308 311
45 278 348 305 334 316 276 265 222 223 179 259 170 251 228 155 181 184 203 199 203 203 201 198 193 194 198 219 265 292 303 311 315 310 309 310 306 301 303 304 307 310 310 311
42 52 42 278 345 331 298 235 203 203 188 161 190 227 165 179 199 208 207 206 206 203 199 194 192 186 208 266 288 299 308 313 314 315 318 320 318 314 312 311 311 313 312 310
133 100 92 254 1 284 250 255 253 228 254 180 156 188 167 132 124 196 225 217 213 205 189 179 176 198 259 285 296 302 304 308 309 313 317 319 321 320 316 313 315 312 310 311
153 122 89 110 213 288 339 155 191 175 279 197 187 146 107 127 119 54 114 196 207 184 171 171 190 248 284 306 314 315 316 309 310 314 311 311 312 312 312 313 315 312 311 312
75 69 119 114 115 236 249 261 6 66 298 198 163 155 155 145 104 259 141 154 154 156 160 175 213 291 328 330 340 336 329 325 323 322 317 312 310 307 309 312 313 314 313 313
96 23 167 148 228 286 244 236 90 80 247 34 185 177 165 159 180 162 162 154 153 156 159 157 129 355 360 342 333 331 327 328 322 322 320 314 308 308 310 312 315 314 313 314
175 148 186 89 111 292 175 112 178 216 48 125 152 186 185 188 150 156 160 159 158 159 154 107 14 353 339 324 314 317 319 314 317 321 323 320 313 310 312 315 315 315 316 317
245 187 181 180 215 246 201 201 202 192 176 179 164 167 189 174 160 164 163 161 159 157 137 8 332 326 322 317 314 316 316 314 319 324 324 320 314 315 317 317 317 318 322 321
243 171 196 66 263 238 246 244 242 230 221 193 184 182 180 174 164 165 165 166 169 163 192 315 320 319 320 317 316 316 318 319 320 321 320 318 318 319 319 319 320 320 324 323
223 143 184 263 277 267 265 248 243 217 200 189 179 186 176 170 168 172 168 171 167 183 254 307 318 321 320 320 328 328 324 322 325 329 325 322 321 321 322 324 326 325 326 324
195 196 176 232 235 217 232 260 221 206 199 199 189 169 172 178 170 167 167 167 182 232 298 314 319 317 322 323 329 327 325 328 330 329 326 324 324 323 325 328 327 328 326 321